Simultaneous Nadir Overpasses (SNOs) Predictions

Prediction of SNOs between GOES-16 and NOAA-20 Satellite Orbit:

Table of predicted SNOs for the next 14.0 days since TLE Epoch: 3/13/2020
Index Date Time (GOES-16) GOES-16 Lat,Lon NOAA-20 Lat,Lon Distance(km) Time Diff (sec)
1 03/14/2020 18:23:31 -0.03, -75.19 0.16, -74.23 108.42 80
2 03/16/2020 06:45:20 0.03, -75.18 0.97, -79.51 492.72 80
3 03/17/2020 06:23:56 0.03, -75.19 -0.03, -74.98 24.17 80
4 03/19/2020 18:27:09 -0.03, -75.22 -0.13, -75.75 60.56 80
5 03/20/2020 18:11:04 -0.03, -75.23 0.87, -71.22 457.14 80
6 03/22/2020 06:32:53 0.03, -75.24 0.32, -76.48 142.22 80
7 03/23/2020 06:11:28 0.03, -75.25 -0.68, -71.95 375.79 80
8 03/24/2020 18:33:25 -0.03, -75.29 -0.47, -77.26 224.74 80
9 03/25/2020 18:17:21 -0.03, -75.30 0.53, -72.72 293.80 80
10 03/27/2020 06:39:09 0.03, -75.33 0.65, -77.99 304.24 80




NCC Satellite Simultaneous Nadir Overpasses (SNOs) Prediction Service
